Time,TemperatureF,DewpointF,PressureIn,WindDirection,WindDirectionDegrees,WindSpeedMPH,WindSpeedGustMPH,Humidity,HourlyPrecipIn,Conditions,Clouds,dailyrainin,SoftwareType,DateUTC
2013-06-15 00:01:00,61.0,54.4,29.97,North,0,0.0,0.0,79,0.00,CLR,CLR,0.00,WeatherDisplay:10.37,2013-06-15 04:01:00,
2013-06-15 00:02:00,61.0,54.4,29.97,North,0,0.0,0.0,79,0.00,CLR,CLR,0.00,WeatherDisplay:10.37,2013-06-15 04:02:00,
2013-06-15 00:04:00,61.0,54.4,29.97,North,0,0.0,0.0,79,0.00,CLR,CLR,0.00,WeatherDisplay:10.37,2013-06-15 04:04:00,
2013-06-15 00:09:00,60.4,54.2,30.00,North,0,0.0,0.0,80,0.00,CLR,CLR,0.00,WeatherDisplay:10.37,2013-06-15 04:09:00,
2013-06-15 00:14:00,60.3,54.1,30.00,North,0,0.0,0.0,80,0.00,CLR,CLR,0.00,WeatherDisplay:10.37,2013-06-15 04:14:00,
2013-06-15 00:20:00,60.1,53.9,30.00,North,0,0.0,0.0,80,0.00,CLR,CLR,0.00,WeatherDisplay:10.37,2013-06-15 04:20:00,
2013-06-15 00:25:00,60.1,54.2,30.00,North,0,0.0,0.0,81,0.00,CLR,CLR,0.00,WeatherDisplay:10.37,2013-06-15 04:25:00,
2013-06-15 00:30:00,59.7,53.9,30.00,North,0,0.0,0.0,81,0.00,CLR,CLR,0.00,WeatherDisplay:10.37,2013-06-15 04:30:00,
2013-06-15 00:36:00,59.5,53.7,30.00,North,0,0.0,0.0,81,0.00,CLR,CLR,0.00,WeatherDisplay:10.37,2013-06-15 04:36:00,
2013-06-15 00:41:00,59.4,54.2,30.00,North,0,0.0,0.0,83,0.00,CLR,CLR,0.00,WeatherDisplay:10.37,2013-06-15 04:41:00,
2013-06-15 00:46:00,59.2,54.0,30.00,North,0,0.0,0.0,83,0.00,CLR,CLR,0.00,WeatherDisplay:10.37,2013-06-15 04:46:00,
2013-06-15 00:51:00,59.0,53.8,30.00,North,0,0.0,0.0,83,0.00,CLR,CLR,0.00,WeatherDisplay:10.37,2013-06-15 04:51:00,
2013-06-15 00:56:00,59.0,53.8,30.00,North,0,0.0,0.0,83,0.00,CLR,CLR,0.00,WeatherDisplay:10.37,2013-06-15 04:56:00,
2013-06-15 01:02:00,58.8,53.7,30.00,North,0,0.0,0.0,83,0.00,CLR,CLR,0.00,WeatherDisplay:10.37,2013-06-15 05:02:00,
2013-06-15 01:07:00,58.6,53.5,30.00,North,0,0.0,0.0,83,0.00,CLR,CLR,0.00,WeatherDisplay:10.37,2013-06-15 05:07:00,
2013-06-15 01:12:00,58.6,53.5,30.00,North,0,0.0,0.0,83,0.00,CLR,CLR,0.00,WeatherDisplay:10.37,2013-06-15 05:12:00,
2013-06-15 01:17:00,58.5,53.6,30.00,North,0,0.0,0.0,84,0.00,CLR,CLR,0.00,WeatherDisplay:10.37,2013-06-15 05:17:00,
2013-06-15 01:22:00,58.5,54.0,30.00,North,0,0.0,0.0,85,0.00,CLR,CLR,0.00,WeatherDisplay:10.37,2013-06-15 05:22:00,
2013-06-15 01:28:00,58.1,54.2,30.00,North,0,0.0,0.0,87,0.00,CLR,CLR,0.00,WeatherDisplay:10.37,2013-06-15 05:28:00,
2013-06-15 01:33:00,58.1,54.2,30.00,North,0,0.0,0.0,87,0.00,CLR,CLR,0.00,WeatherDisplay:10.37,2013-06-15 05:33:00,
2013-06-15 01:38:00,57.7,53.6,30.00,North,0,0.0,0.0,86,0.00,CLR,CLR,0.00,WeatherDisplay:10.37,2013-06-15 05:38:00,
2013-06-15 01:43:00,57.7,53.6,30.00,North,0,0.0,0.0,86,0.00,CLR,CLR,0.00,WeatherDisplay:10.37,2013-06-15 05:43:00,
2013-06-15 01:48:00,57.7,53.6,30.00,North,0,0.0,0.0,86,0.00,CLR,CLR,0.00,WeatherDisplay:10.37,2013-06-15 05:48:00,
2013-06-15 01:53:00,57.6,53.4,30.00,North,0,0.0,0.0,86,0.00,CLR,CLR,0.00,WeatherDisplay:10.37,2013-06-15 05:53:00,
2013-06-15 01:58:00,57.6,53.7,30.00,North,0,0.0,0.0,87,0.00,CLR,CLR,0.00,WeatherDisplay:10.37,2013-06-15 05:58:00,
2013-06-15 02:03:00,57.4,53.5,30.00,North,0,0.0,0.0,87,0.00,CLR,CLR,0.00,WeatherDisplay:10.37,2013-06-15 06:03:00,
2013-06-15 02:08:00,57.2,53.4,30.00,North,0,0.0,0.0,87,0.00,CLR,CLR,0.00,WeatherDisplay:10.37,2013-06-15 06:08:00,
2013-06-15 02:14:00,57.2,53.4,30.00,North,0,0.0,0.0,87,0.00,CLR,CLR,0.00,WeatherDisplay:10.37,2013-06-15 06:14:00,
2013-06-15 02:19:00,57.2,53.4,30.00,North,0,0.0,0.0,87,0.00,CLR,CLR,0.00,WeatherDisplay:10.37,2013-06-15 06:19:00,
2013-06-15 02:24:00,57.2,53.4,30.00,North,0,0.0,0.0,87,0.00,CLR,CLR,0.00,WeatherDisplay:10.37,2013-06-15 06:24:00,
2013-06-15 02:29:00,57.0,53.2,30.00,North,0,0.0,0.0,87,0.00,CLR,CLR,0.00,WeatherDisplay:10.37,2013-06-15 06:29:00,
2013-06-15 02:34:00,57.0,53.2,30.00,North,0,0.0,0.0,87,0.00,CLR,CLR,0.00,WeatherDisplay:10.37,2013-06-15 06:34:00,
2013-06-15 02:40:00,57.0,53.2,30.00,North,0,0.0,0.0,87,0.00,CLR,CLR,0.00,WeatherDisplay:10.37,2013-06-15 06:40:00,
2013-06-15 02:45:00,57.0,53.5,30.00,North,0,0.0,0.0,88,0.00,CLR,CLR,0.00,WeatherDisplay:10.37,2013-06-15 06:45:00,
2013-06-15 02:50:00,57.2,53.7,30.00,North,0,0.0,0.0,88,0.00,CLR,CLR,0.00,WeatherDisplay:10.37,2013-06-15 06:50:00,
2013-06-15 02:55:00,57.0,53.8,30.00,North,0,0.0,0.0,89,0.00,CLR,CLR,0.00,WeatherDisplay:10.37,2013-06-15 06:55:00,
2013-06-15 03:00:00,57.0,53.8,30.00,North,0,0.0,0.0,89,0.00,CLR,CLR,0.00,WeatherDisplay:10.37,2013-06-15 07:00:00,
2013-06-15 03:06:00,57.0,53.8,30.00,North,0,0.0,0.0,89,0.00,CLR,CLR,0.00,WeatherDisplay:10.37,2013-06-15 07:06:00,
2013-06-15 03:11:00,57.2,54.0,30.00,North,0,0.0,0.0,89,0.00,CLR,CLR,0.00,WeatherDisplay:10.37,2013-06-15 07:11:00,
2013-06-15 03:16:00,56.8,53.6,30.00,North,0,0.0,0.0,89,0.00,CLR,CLR,0.00,WeatherDisplay:10.37,2013-06-15 07:16:00,
2013-06-15 03:21:00,56.8,53.9,30.00,North,0,0.0,0.0,90,0.00,CLR,CLR,0.00,WeatherDisplay:10.37,2013-06-15 07:21:00,
2013-06-15 03:26:00,56.7,53.8,30.00,North,0,0.0,0.0,90,0.00,CLR,CLR,0.00,WeatherDisplay:10.37,2013-06-15 07:26:00,
2013-06-15 03:31:00,56.7,53.8,30.00,North,0,0.0,0.0,90,0.00,CLR,CLR,0.00,WeatherDisplay:10.37,2013-06-15 07:31:00,
2013-06-15 03:36:00,56.7,53.8,30.00,North,0,0.0,0.0,90,0.00,CLR,CLR,0.00,WeatherDisplay:10.37,2013-06-15 07:36:00,
2013-06-15 03:41:00,56.8,53.9,30.00,North,0,0.0,0.0,90,0.00,CLR,CLR,0.00,WeatherDisplay:10.37,2013-06-15 07:41:00,
2013-06-15 03:46:00,56.7,53.8,30.00,North,0,0.0,0.0,90,0.00,CLR,CLR,0.00,WeatherDisplay:10.37,2013-06-15 07:46:00,
2013-06-15 03:52:00,56.7,53.8,30.00,North,0,0.0,0.0,90,0.00,CLR,CLR,0.00,WeatherDisplay:10.37,2013-06-15 07:52:00,
2013-06-15 03:57:00,56.7,54.1,30.00,North,0,0.0,0.0,91,0.00,CLR,CLR,0.00,WeatherDisplay:10.37,2013-06-15 07:57:00,
2013-06-15 04:02:00,56.6,56.6,30.00,North,0,0.0,0.0,100,0.00,CLR,CLR,0.00,WeatherDisplay:10.37,2013-06-15 08:02:00,
2013-06-15 04:07:00,56.5,53.6,30.00,North,0,0.0,0.0,90,0.00,CLR,CLR,0.00,WeatherDisplay:10.37,2013-06-15 08:07:00,
2013-06-15 04:12:00,56.7,54.1,30.00,North,0,0.0,0.0,91,0.00,CLR,CLR,0.00,WeatherDisplay:10.37,2013-06-15 08:12:00,
2013-06-15 04:17:00,56.7,54.1,30.00,North,0,0.0,0.0,91,0.00,CLR,CLR,0.00,WeatherDisplay:10.37,2013-06-15 08:17:00,
2013-06-15 04:22:00,56.5,53.9,30.00,North,0,0.0,0.0,91,0.00,CLR,CLR,0.00,WeatherDisplay:10.37,2013-06-15 08:22:00,
2013-06-15 04:27:00,56.7,54.1,30.00,North,0,0.0,0.0,91,0.00,CLR,CLR,0.00,WeatherDisplay:10.37,2013-06-15 08:27:00,
2013-06-15 04:33:00,56.7,54.1,30.00,North,0,0.0,0.0,91,0.00,CLR,CLR,0.00,WeatherDisplay:10.37,2013-06-15 08:33:00,
2013-06-15 04:38:00,56.7,54.1,30.00,North,0,0.0,0.0,91,0.00,CLR,CLR,0.00,WeatherDisplay:10.37,2013-06-15 08:38:00,
2013-06-15 04:43:00,56.3,54.0,30.00,North,0,0.0,0.0,92,0.00,CLR,CLR,0.00,WeatherDisplay:10.37,2013-06-15 08:43:00,
2013-06-15 04:48:00,56.3,54.0,30.00,North,0,0.0,0.0,92,0.00,CLR,CLR,0.00,WeatherDisplay:10.37,2013-06-15 08:48:00,
2013-06-15 04:53:00,56.3,54.0,30.00,North,0,0.0,0.0,92,0.00,CLR,CLR,0.00,WeatherDisplay:10.37,2013-06-15 08:53:00,
2013-06-15 04:58:00,56.3,54.0,30.00,North,0,0.0,0.0,92,0.00,CLR,CLR,0.00,WeatherDisplay:10.37,2013-06-15 08:58:00,
2013-06-15 05:03:00,56.1,53.8,30.00,North,0,0.0,0.0,92,0.00,CLR,CLR,0.00,WeatherDisplay:10.37,2013-06-15 09:03:00,
2013-06-15 05:08:00,56.1,53.8,30.00,North,0,0.0,0.0,92,0.00,CLR,CLR,0.00,WeatherDisplay:10.37,2013-06-15 09:08:00,
2013-06-15 05:14:00,56.3,54.0,30.00,North,0,0.0,0.0,92,0.00,CLR,CLR,0.00,WeatherDisplay:10.37,2013-06-15 09:14:00,
2013-06-15 05:19:00,56.3,54.0,30.00,North,0,0.0,0.0,92,0.00,CLR,CLR,0.00,WeatherDisplay:10.37,2013-06-15 09:19:00,
2013-06-15 05:24:00,56.3,54.0,30.00,North,0,0.0,0.0,92,0.00,CLR,CLR,0.00,WeatherDisplay:10.37,2013-06-15 09:24:00,
2013-06-15 05:29:00,56.3,54.0,30.00,North,0,0.0,0.0,92,0.00,CLR,CLR,0.00,WeatherDisplay:10.37,2013-06-15 09:29:00,
2013-06-15 05:34:00,56.3,54.0,30.00,North,0,0.0,0.0,92,0.00,CLR,CLR,0.00,WeatherDisplay:10.37,2013-06-15 09:34:00,
2013-06-15 05:40:00,56.3,54.0,30.00,North,0,0.0,0.0,92,0.00,CLR,CLR,0.00,WeatherDisplay:10.37,2013-06-15 09:40:00,
2013-06-15 05:45:00,56.3,54.0,30.00,North,0,0.0,0.0,92,0.00,CLR,CLR,0.00,WeatherDisplay:10.37,2013-06-15 09:45:00,
2013-06-15 05:50:00,56.3,54.0,30.00,North,0,0.0,0.0,92,0.00,CLR,CLR,0.00,WeatherDisplay:10.37,2013-06-15 09:50:00,
2013-06-15 05:55:00,56.3,54.3,30.00,North,0,0.0,0.0,93,0.00,CLR,CLR,0.00,WeatherDisplay:10.37,2013-06-15 09:55:00,
2013-06-15 06:00:00,56.3,54.3,30.00,North,0,0.0,0.0,93,0.00,CLR,CLR,0.00,WeatherDisplay:10.37,2013-06-15 10:00:00,
2013-06-15 06:05:00,56.3,54.3,30.00,North,0,0.0,0.0,93,0.00,CLR,CLR,0.00,WeatherDisplay:10.37,2013-06-15 10:05:00,
2013-06-15 06:11:00,56.5,54.5,30.00,North,0,0.0,0.0,93,0.00,CLR,CLR,0.00,WeatherDisplay:10.37,2013-06-15 10:11:00,
2013-06-15 06:16:00,56.7,54.7,30.00,North,0,0.0,0.0,93,0.00,CLR,CLR,0.00,WeatherDisplay:10.37,2013-06-15 10:16:00,
2013-06-15 06:21:00,56.8,54.8,30.00,North,0,0.0,0.0,93,0.00,CLR,CLR,0.00,WeatherDisplay:10.37,2013-06-15 10:21:00,
2013-06-15 06:26:00,57.0,55.0,30.00,North,0,0.0,0.0,93,0.00,CLR,CLR,0.00,WeatherDisplay:10.37,2013-06-15 10:26:00,
2013-06-15 06:31:00,57.6,55.3,30.00,North,0,0.0,0.0,92,0.00,CLR,CLR,0.00,WeatherDisplay:10.37,2013-06-15 10:31:00,
2013-06-15 06:36:00,57.7,55.4,30.00,North,0,0.0,0.0,92,0.00,CLR,CLR,0.00,WeatherDisplay:10.37,2013-06-15 10:36:00,
2013-06-15 06:41:00,58.1,55.8,30.03,North,0,0.0,0.0,92,0.00,CLR,CLR,0.00,WeatherDisplay:10.37,2013-06-15 10:41:00,
2013-06-15 06:47:00,58.5,56.1,30.03,North,0,0.0,0.0,92,0.00,CLR,CLR,0.00,WeatherDisplay:10.37,2013-06-15 10:47:00,
2013-06-15 06:52:00,59.0,56.7,30.03,North,0,0.0,0.0,92,0.00,CLR,CLR,0.00,WeatherDisplay:10.37,2013-06-15 10:52:00,
2013-06-15 06:57:00,59.2,56.9,30.03,North,0,0.0,0.0,92,0.00,CLR,CLR,0.00,WeatherDisplay:10.37,2013-06-15 10:57:00,
2013-06-15 07:02:00,60.3,57.9,30.03,North,0,0.0,0.0,92,0.00,CLR,CLR,0.00,WeatherDisplay:10.37,2013-06-15 11:02:00,
2013-06-15 07:07:00,61.3,58.7,30.03,North,0,0.0,0.0,91,0.00,CLR,CLR,0.00,WeatherDisplay:10.37,2013-06-15 11:07:00,
2013-06-15 07:12:00,65.7,61.7,30.03,North,0,0.0,0.0,87,0.00,CLR,CLR,0.00,WeatherDisplay:10.37,2013-06-15 11:12:00,
2013-06-15 07:18:00,67.6,62.6,30.03,North,0,0.0,0.0,84,0.00,CLR,CLR,0.00,WeatherDisplay:10.37,2013-06-15 11:18:00,
2013-06-15 07:23:00,68.0,61.9,30.03,North,0,0.0,0.0,81,0.00,CLR,CLR,0.00,WeatherDisplay:10.37,2013-06-15 11:23:00,
2013-06-15 07:28:00,68.9,62.1,30.03,North,0,0.0,0.0,79,0.00,CLR,CLR,0.00,WeatherDisplay:10.37,2013-06-15 11:28:00,
2013-06-15 07:33:00,69.6,62.1,30.03,North,0,0.0,0.0,77,0.00,CLR,CLR,0.00,WeatherDisplay:10.37,2013-06-15 11:33:00,
2013-06-15 07:38:00,70.3,62.0,30.03,North,0,0.0,0.0,75,0.00,CLR,CLR,0.00,WeatherDisplay:10.37,2013-06-15 11:38:00,
2013-06-15 07:43:00,70.9,61.4,30.06,North,0,0.0,0.0,72,0.00,CLR,CLR,0.00,WeatherDisplay:10.37,2013-06-15 11:43:00,
2013-06-15 07:48:00,71.6,62.1,30.06,North,0,0.0,0.0,72,0.00,CLR,CLR,0.00,WeatherDisplay:10.37,2013-06-15 11:48:00,
2013-06-15 07:53:00,72.0,61.6,30.06,North,0,0.0,0.0,70,0.00,CLR,CLR,0.00,WeatherDisplay:10.37,2013-06-15 11:53:00,
2013-06-15 07:58:00,73.2,62.8,30.06,North,0,0.0,0.0,70,0.00,CLR,CLR,0.00,WeatherDisplay:10.37,2013-06-15 11:58:00,
2013-06-15 08:03:00,74.7,64.2,30.06,North,0,0.0,0.0,70,0.00,CLR,CLR,0.00,WeatherDisplay:10.37,2013-06-15 12:03:00,
2013-06-15 08:08:00,76.1,65.6,30.06,North,0,0.0,0.0,70,0.00,CLR,CLR,0.00,WeatherDisplay:10.37,2013-06-15 12:08:00,
2013-06-15 08:13:00,75.6,64.7,30.06,North,0,0.0,0.0,69,0.00,CLR,CLR,0.00,WeatherDisplay:10.37,2013-06-15 12:13:00,
2013-06-15 08:18:00,76.1,65.6,30.06,North,0,0.0,0.0,70,0.00,CLR,CLR,0.00,WeatherDisplay:10.37,2013-06-15 12:18:00,
2013-06-15 08:24:00,75.9,65.0,30.06,North,0,0.0,0.0,69,0.00,CLR,CLR,0.00,WeatherDisplay:10.37,2013-06-15 12:24:00,
2013-06-15 08:29:00,75.7,64.0,30.06,North,0,0.0,0.0,67,0.00,CLR,CLR,0.00,WeatherDisplay:10.37,2013-06-15 12:29:00,
2013-06-15 08:34:00,75.7,64.0,30.06,North,0,0.0,0.0,67,0.00,CLR,CLR,0.00,WeatherDisplay:10.37,2013-06-15 12:34:00,
2013-06-15 08:39:00,75.9,63.7,30.06,North,0,0.0,0.0,66,0.00,CLR,CLR,0.00,WeatherDisplay:10.37,2013-06-15 12:39:00,
2013-06-15 08:44:00,76.8,64.6,30.06,North,0,0.0,0.0,66,0.00,CLR,CLR,0.00,WeatherDisplay:10.37,2013-06-15 12:44:00,
2013-06-15 08:49:00,77.5,63.0,30.06,North,0,0.0,0.0,61,0.00,CLR,CLR,0.00,WeatherDisplay:10.37,2013-06-15 12:49:00,
2013-06-15 08:54:00,77.7,61.8,30.06,North,0,0.0,0.0,58,0.00,CLR,CLR,0.00,WeatherDisplay:10.37,2013-06-15 12:54:00,
2013-06-15 09:03:00,77.0,60.6,30.06,North,0,0.0,0.0,57,0.00,CLR,CLR,0.00,WeatherDisplay:10.37,2013-06-15 13:03:00,
2013-06-15 09:09:00,76.8,58.9,30.06,North,0,0.0,0.0,54,0.00,CLR,CLR,0.00,WeatherDisplay:10.37,2013-06-15 13:09:00,
2013-06-15 09:14:00,77.2,59.8,30.06,North,0,0.0,0.0,55,0.00,CLR,CLR,0.00,WeatherDisplay:10.37,2013-06-15 13:14:00,
2013-06-15 09:19:00,78.6,61.6,30.06,North,0,0.0,0.0,56,0.00,CLR,CLR,0.00,WeatherDisplay:10.37,2013-06-15 13:19:00,
2013-06-15 09:24:00,77.9,59.9,30.06,North,0,0.0,0.0,54,0.00,CLR,CLR,0.00,WeatherDisplay:10.37,2013-06-15 13:24:00,
2013-06-15 09:30:00,78.4,59.9,30.06,North,0,0.0,0.0,53,0.00,CLR,CLR,0.00,WeatherDisplay:10.37,2013-06-15 13:30:00,
2013-06-15 09:35:00,78.8,59.7,30.06,North,0,0.0,0.0,52,0.00,CLR,CLR,0.00,WeatherDisplay:10.37,2013-06-15 13:35:00,
2013-06-15 09:40:00,79.3,60.2,30.06,North,0,0.0,0.0,52,0.00,CLR,CLR,0.00,WeatherDisplay:10.37,2013-06-15 13:40:00,
2013-06-15 09:45:00,79.7,58.8,30.06,North,0,0.0,0.0,49,0.00,CLR,CLR,0.00,WeatherDisplay:10.37,2013-06-15 13:45:00,
2013-06-15 09:50:00,79.5,59.2,30.06,North,0,0.0,0.0,50,0.00,CLR,CLR,0.00,WeatherDisplay:10.37,2013-06-15 13:50:00,
2013-06-15 09:55:00,80.2,59.9,30.06,North,0,0.0,0.0,50,0.00,CLR,CLR,0.00,WeatherDisplay:10.37,2013-06-15 13:55:00,
2013-06-15 10:00:00,80.4,59.5,30.06,North,0,0.0,0.0,49,0.00,CLR,CLR,0.00,WeatherDisplay:10.37,2013-06-15 14:00:00,
2013-06-15 10:05:00,80.6,59.7,30.06,North,0,0.0,0.0,49,0.00,CLR,CLR,0.00,WeatherDisplay:10.37,2013-06-15 14:05:00,
2013-06-15 10:10:00,79.9,57.3,30.09,North,0,0.0,0.0,46,0.00,CLR,CLR,0.00,WeatherDisplay:10.37,2013-06-15 14:10:00,
2013-06-15 10:15:00,81.0,59.4,30.09,North,0,0.0,0.0,48,0.00,CLR,CLR,0.00,WeatherDisplay:10.37,2013-06-15 14:15:00,
2013-06-15 10:21:00,81.9,61.4,30.09,North,0,0.0,0.0,50,0.00,CLR,CLR,0.00,WeatherDisplay:10.37,2013-06-15 14:21:00,
2013-06-15 10:26:00,81.1,59.6,30.09,North,0,0.0,0.0,48,0.00,CLR,CLR,0.00,WeatherDisplay:10.37,2013-06-15 14:26:00,
2013-06-15 10:31:00,81.0,57.6,30.09,North,0,0.0,0.0,45,0.00,CLR,CLR,0.00,WeatherDisplay:10.37,2013-06-15 14:31:00,
2013-06-15 10:36:00,80.8,57.5,30.09,North,0,0.0,0.0,45,0.00,CLR,CLR,0.00,WeatherDisplay:10.37,2013-06-15 14:36:00,
2013-06-15 10:41:00,80.6,57.9,30.09,North,0,0.0,0.0,46,0.00,CLR,CLR,0.00,WeatherDisplay:10.37,2013-06-15 14:41:00,
2013-06-15 10:47:00,79.9,56.6,30.09,North,0,0.0,0.0,45,0.00,CLR,CLR,0.00,WeatherDisplay:10.37,2013-06-15 14:47:00,
2013-06-15 10:52:00,79.9,56.6,30.09,North,0,0.0,0.0,45,0.00,CLR,CLR,0.00,WeatherDisplay:10.37,2013-06-15 14:52:00,
2013-06-15 10:57:00,80.2,57.6,30.09,North,0,0.0,0.0,46,0.00,CLR,CLR,0.00,WeatherDisplay:10.37,2013-06-15 14:57:00,
2013-06-15 11:02:00,80.4,57.7,30.09,North,0,0.0,0.0,46,0.00,CLR,CLR,0.00,WeatherDisplay:10.37,2013-06-15 15:02:00,
2013-06-15 11:07:00,80.6,57.3,30.09,North,0,0.0,0.0,45,0.00,CLR,CLR,0.00,WeatherDisplay:10.37,2013-06-15 15:07:00,
2013-06-15 11:12:00,80.2,57.0,30.09,North,0,0.0,0.0,45,0.00,CLR,CLR,0.00,WeatherDisplay:10.37,2013-06-15 15:12:00,
2013-06-15 11:17:00,80.4,57.1,30.09,North,0,0.0,0.0,45,0.00,CLR,CLR,0.00,WeatherDisplay:10.37,2013-06-15 15:17:00,
2013-06-15 11:23:00,80.4,57.1,30.09,North,0,0.0,0.0,45,0.00,CLR,CLR,0.00,WeatherDisplay:10.37,2013-06-15 15:23:00,
2013-06-15 11:28:00,80.2,57.0,30.09,North,0,0.0,0.0,45,0.00,CLR,CLR,0.00,WeatherDisplay:10.37,2013-06-15 15:28:00,
2013-06-15 11:33:00,80.4,56.5,30.09,North,0,0.0,0.0,44,0.00,CLR,CLR,0.00,WeatherDisplay:10.37,2013-06-15 15:33:00,
2013-06-15 11:38:00,80.8,57.5,30.09,North,0,0.0,0.0,45,0.00,CLR,CLR,0.00,WeatherDisplay:10.37,2013-06-15 15:38:00,
2013-06-15 11:44:00,81.0,57.0,30.09,North,0,0.0,0.0,44,0.00,CLR,CLR,0.00,WeatherDisplay:10.37,2013-06-15 15:44:00,
2013-06-15 11:49:00,81.1,55.9,30.09,North,0,0.0,0.0,42,0.00,CLR,CLR,0.00,WeatherDisplay:10.37,2013-06-15 15:49:00,
2013-06-15 11:54:00,81.0,56.4,30.09,North,0,0.0,0.0,43,0.00,CLR,CLR,0.00,WeatherDisplay:10.37,2013-06-15 15:54:00,
2013-06-15 11:59:00,79.3,54.9,30.09,North,0,0.0,0.0,43,0.00,CLR,CLR,0.00,WeatherDisplay:10.37,2013-06-15 15:59:00,
2013-06-15 12:04:00,81.0,57.0,30.09,North,0,0.0,0.0,44,0.00,CLR,CLR,0.00,WeatherDisplay:10.37,2013-06-15 16:04:00,
2013-06-15 12:09:00,80.6,54.7,30.09,North,0,0.0,0.0,41,0.00,CLR,CLR,0.00,WeatherDisplay:10.37,2013-06-15 16:09:00,
2013-06-15 12:14:00,80.8,56.2,30.09,North,0,0.0,0.0,43,0.00,CLR,CLR,0.00,WeatherDisplay:10.37,2013-06-15 16:14:00,
2013-06-15 12:19:00,81.1,55.9,30.09,North,0,0.0,0.0,42,0.00,CLR,CLR,0.00,WeatherDisplay:10.37,2013-06-15 16:19:00,
2013-06-15 12:25:00,81.3,55.4,30.09,North,0,0.0,0.0,41,0.00,CLR,CLR,0.00,WeatherDisplay:10.37,2013-06-15 16:25:00,
2013-06-15 12:30:00,82.4,57.0,30.09,North,0,0.0,0.0,42,0.00,CLR,CLR,0.00,WeatherDisplay:10.37,2013-06-15 16:30:00,
2013-06-15 12:35:00,82.6,57.2,30.09,North,0,0.0,0.0,42,0.00,CLR,CLR,0.00,WeatherDisplay:10.37,2013-06-15 16:35:00,
2013-06-15 12:40:00,82.8,57.3,30.09,North,0,0.0,0.0,42,0.00,CLR,CLR,0.00,WeatherDisplay:10.37,2013-06-15 16:40:00,
2013-06-15 12:45:00,82.0,56.7,30.09,North,0,0.0,0.0,42,0.00,CLR,CLR,0.00,WeatherDisplay:10.37,2013-06-15 16:45:00,
2013-06-15 12:51:00,84.2,58.6,30.09,North,0,0.0,0.0,42,0.00,CLR,CLR,0.00,WeatherDisplay:10.37,2013-06-15 16:51:00,
2013-06-15 12:56:00,83.7,57.5,30.09,North,0,0.0,0.0,41,0.00,CLR,CLR,0.00,WeatherDisplay:10.37,2013-06-15 16:56:00,
2013-06-15 13:01:00,83.8,57.6,30.09,North,0,0.0,0.0,41,0.00,CLR,CLR,0.00,WeatherDisplay:10.37,2013-06-15 17:01:00,
2013-06-15 13:06:00,83.8,57.6,30.09,North,0,0.0,0.0,41,0.00,CLR,CLR,0.00,WeatherDisplay:10.37,2013-06-15 17:06:00,
2013-06-15 13:11:00,84.0,57.8,30.06,North,0,0.0,0.0,41,0.00,CLR,CLR,0.00,WeatherDisplay:10.37,2013-06-15 17:11:00,
2013-06-15 13:17:00,84.4,57.4,30.06,North,0,0.0,0.0,40,0.00,CLR,CLR,0.00,WeatherDisplay:10.37,2013-06-15 17:17:00,
2013-06-15 13:22:00,86.4,59.9,30.06,North,0,0.0,0.0,41,0.00,CLR,CLR,0.00,WeatherDisplay:10.37,2013-06-15 17:22:00,
2013-06-15 13:27:00,86.5,60.0,30.06,North,0,0.0,0.0,41,0.00,CLR,CLR,0.00,WeatherDisplay:10.37,2013-06-15 17:27:00,
2013-06-15 13:32:00,86.0,60.2,30.06,North,0,0.0,0.0,42,0.00,CLR,CLR,0.00,WeatherDisplay:10.37,2013-06-15 17:32:00,
2013-06-15 13:38:00,86.5,60.7,30.06,North,0,0.0,0.0,42,0.00,CLR,CLR,0.00,WeatherDisplay:10.37,2013-06-15 17:38:00,
2013-06-15 13:43:00,85.5,59.8,30.06,North,0,0.0,0.0,42,0.00,CLR,CLR,0.00,WeatherDisplay:10.37,2013-06-15 17:43:00,
2013-06-15 13:48:00,85.3,59.6,30.06,North,0,0.0,0.0,42,0.00,CLR,CLR,0.00,WeatherDisplay:10.37,2013-06-15 17:48:00,
2013-06-15 13:53:00,85.6,59.9,30.06,North,0,0.0,0.0,42,0.00,CLR,CLR,0.00,WeatherDisplay:10.37,2013-06-15 17:53:00,
2013-06-15 13:58:00,85.5,59.8,30.06,North,0,0.0,0.0,42,0.00,CLR,CLR,0.00,WeatherDisplay:10.37,2013-06-15 17:58:00,
2013-06-15 14:03:00,86.2,60.4,30.06,North,0,0.0,0.0,42,0.00,CLR,CLR,0.00,WeatherDisplay:10.37,2013-06-15 18:03:00,
2013-06-15 14:08:00,84.4,59.4,30.06,North,0,0.0,0.0,43,0.00,CLR,CLR,0.00,WeatherDisplay:10.37,2013-06-15 18:08:00,
2013-06-15 14:13:00,84.7,59.8,30.06,North,0,0.0,0.0,43,0.00,CLR,CLR,0.00,WeatherDisplay:10.37,2013-06-15 18:13:00,
2013-06-15 14:18:00,85.8,60.7,30.06,North,0,0.0,0.0,43,0.00,CLR,CLR,0.00,WeatherDisplay:10.37,2013-06-15 18:18:00,
2013-06-15 14:24:00,86.0,60.9,30.06,North,0,0.0,0.0,43,0.00,CLR,CLR,0.00,WeatherDisplay:10.37,2013-06-15 18:24:00,
2013-06-15 14:29:00,86.4,61.2,30.06,North,0,0.0,0.0,43,0.00,CLR,CLR,0.00,WeatherDisplay:10.37,2013-06-15 18:29:00,
2013-06-15 14:34:00,85.3,60.3,30.06,North,0,0.0,0.0,43,0.00,CLR,CLR,0.00,WeatherDisplay:10.37,2013-06-15 18:34:00,
2013-06-15 14:39:00,85.6,60.6,30.06,North,0,0.0,0.0,43,0.00,CLR,CLR,0.00,WeatherDisplay:10.37,2013-06-15 18:39:00,
2013-06-15 14:44:00,85.6,61.2,30.06,North,0,0.0,0.0,44,0.00,CLR,CLR,0.00,WeatherDisplay:10.37,2013-06-15 18:44:00,
2013-06-15 14:50:00,85.3,60.3,30.06,North,0,0.0,0.0,43,0.00,CLR,CLR,0.00,WeatherDisplay:10.37,2013-06-15 18:50:00,
2013-06-15 14:55:00,85.8,60.7,30.06,North,0,0.0,0.0,43,0.00,CLR,CLR,0.00,WeatherDisplay:10.37,2013-06-15 18:55:00,
2013-06-15 15:00:00,86.5,61.4,30.06,North,0,0.0,0.0,43,0.00,CLR,CLR,0.00,WeatherDisplay:10.37,2013-06-15 19:00:00,
2013-06-15 15:05:00,85.6,60.6,30.06,North,0,0.0,0.0,43,0.00,CLR,CLR,0.00,WeatherDisplay:10.37,2013-06-15 19:05:00,
2013-06-15 15:10:00,86.7,61.5,30.06,North,0,0.0,0.0,43,0.00,CLR,CLR,0.00,WeatherDisplay:10.37,2013-06-15 19:10:00,
2013-06-15 15:15:00,86.9,61.0,30.06,North,0,0.0,0.0,42,0.00,CLR,CLR,0.00,WeatherDisplay:10.37,2013-06-15 19:15:00,
2013-06-15 15:20:00,86.4,60.6,30.06,North,0,0.0,0.0,42,0.00,CLR,CLR,0.00,WeatherDisplay:10.37,2013-06-15 19:20:00,
2013-06-15 15:26:00,85.8,60.1,30.03,North,0,0.0,0.0,42,0.00,CLR,CLR,0.00,WeatherDisplay:10.37,2013-06-15 19:26:00,
2013-06-15 15:31:00,85.1,58.8,30.03,North,0,0.0,0.0,41,0.00,CLR,CLR,0.00,WeatherDisplay:10.37,2013-06-15 19:31:00,
2013-06-15 15:36:00,85.6,59.9,30.03,North,0,0.0,0.0,42,0.00,CLR,CLR,0.00,WeatherDisplay:10.37,2013-06-15 19:36:00,
2013-06-15 15:41:00,85.8,59.4,30.03,North,0,0.0,0.0,41,0.00,CLR,CLR,0.00,WeatherDisplay:10.37,2013-06-15 19:41:00,
2013-06-15 15:46:00,85.1,58.8,30.03,North,0,0.0,0.0,41,0.00,CLR,CLR,0.00,WeatherDisplay:10.37,2013-06-15 19:46:00,
2013-06-15 15:51:00,86.9,60.4,30.03,North,0,0.0,0.0,41,0.00,CLR,CLR,0.00,WeatherDisplay:10.37,2013-06-15 19:51:00,
2013-06-15 15:56:00,87.1,60.5,30.03,North,0,0.0,0.0,41,0.00,CLR,CLR,0.00,WeatherDisplay:10.37,2013-06-15 19:56:00,
2013-06-15 16:01:00,86.5,86.5,30.03,North,0,0.0,0.0,100,0.00,CLR,CLR,0.00,WeatherDisplay:10.37,2013-06-15 20:01:00,
2013-06-15 16:07:00,86.2,59.7,30.03,North,0,0.0,0.0,41,0.00,CLR,CLR,0.00,WeatherDisplay:10.37,2013-06-15 20:07:00,
2013-06-15 16:12:00,84.2,57.9,30.03,North,0,0.0,0.0,41,0.00,CLR,CLR,0.00,WeatherDisplay:10.37,2013-06-15 20:12:00,
2013-06-15 16:18:00,83.8,58.3,30.03,North,0,0.0,0.0,42,0.00,CLR,CLR,0.00,WeatherDisplay:10.37,2013-06-15 20:18:00,
2013-06-15 16:23:00,85.1,58.8,30.03,North,0,0.0,0.0,41,0.00,CLR,CLR,0.00,WeatherDisplay:10.37,2013-06-15 20:23:00,
2013-06-15 16:28:00,86.4,59.9,30.03,North,0,0.0,0.0,41,0.00,CLR,CLR,0.00,WeatherDisplay:10.37,2013-06-15 20:28:00,
2013-06-15 16:34:00,86.0,60.2,30.03,North,0,0.0,0.0,42,0.00,CLR,CLR,0.00,WeatherDisplay:10.37,2013-06-15 20:34:00,
2013-06-15 16:39:00,85.5,59.8,30.03,North,0,0.0,0.0,42,0.00,CLR,CLR,0.00,WeatherDisplay:10.37,2013-06-15 20:39:00,
2013-06-15 16:44:00,85.6,59.2,30.03,North,0,0.0,0.0,41,0.00,CLR,CLR,0.00,WeatherDisplay:10.37,2013-06-15 20:44:00,
2013-06-15 16:49:00,84.2,57.9,30.03,North,0,0.0,0.0,41,0.00,CLR,CLR,0.00,WeatherDisplay:10.37,2013-06-15 20:49:00,
2013-06-15 16:55:00,83.8,57.6,30.03,North,0,0.0,0.0,41,0.00,CLR,CLR,0.00,WeatherDisplay:10.37,2013-06-15 20:55:00,
2013-06-15 17:00:00,84.4,58.1,30.03,North,0,0.0,0.0,41,0.00,CLR,CLR,0.00,WeatherDisplay:10.37,2013-06-15 21:00:00,
2013-06-15 17:05:00,85.3,58.9,30.03,North,0,0.0,0.0,41,0.00,CLR,CLR,0.00,WeatherDisplay:10.37,2013-06-15 21:05:00,
2013-06-15 17:10:00,85.1,58.8,30.03,North,0,0.0,0.0,41,0.00,CLR,CLR,0.00,WeatherDisplay:10.37,2013-06-15 21:10:00,
2013-06-15 17:17:00,85.1,58.8,30.03,North,0,0.0,0.0,41,0.00,CLR,CLR,0.00,WeatherDisplay:10.37,2013-06-15 21:17:00,
2013-06-15 17:22:00,84.6,57.6,30.03,North,0,0.0,0.0,40,0.00,CLR,CLR,0.00,WeatherDisplay:10.37,2013-06-15 21:22:00,
2013-06-15 17:27:00,83.7,56.8,30.03,North,0,0.0,0.0,40,0.00,CLR,CLR,0.00,WeatherDisplay:10.37,2013-06-15 21:27:00,
2013-06-15 17:32:00,84.0,57.8,30.03,North,0,0.0,0.0,41,0.00,CLR,CLR,0.00,WeatherDisplay:10.37,2013-06-15 21:32:00,
2013-06-15 17:38:00,84.0,57.8,30.03,North,0,0.0,0.0,41,0.00,CLR,CLR,0.00,WeatherDisplay:10.37,2013-06-15 21:38:00,
2013-06-15 17:43:00,82.9,56.8,30.03,North,0,0.0,0.0,41,0.00,CLR,CLR,0.00,WeatherDisplay:10.37,2013-06-15 21:43:00,
2013-06-15 17:48:00,82.9,56.8,30.03,North,0,0.0,0.0,41,0.00,CLR,CLR,0.00,WeatherDisplay:10.37,2013-06-15 21:48:00,
2013-06-15 17:53:00,82.6,56.5,30.03,North,0,0.0,0.0,41,0.00,CLR,CLR,0.00,WeatherDisplay:10.37,2013-06-15 21:53:00,
2013-06-15 17:58:00,81.1,55.9,30.03,North,0,0.0,0.0,42,0.00,CLR,CLR,0.00,WeatherDisplay:10.37,2013-06-15 21:58:00,
2013-06-15 18:04:00,81.0,55.7,30.03,North,0,0.0,0.0,42,0.00,CLR,CLR,0.00,WeatherDisplay:10.37,2013-06-15 22:04:00,
2013-06-15 18:09:00,80.2,55.1,30.03,North,0,0.0,0.0,42,0.00,CLR,CLR,0.00,WeatherDisplay:10.37,2013-06-15 22:09:00,
2013-06-15 18:14:00,79.5,55.1,30.03,North,0,0.0,0.0,43,0.00,CLR,CLR,0.00,WeatherDisplay:10.37,2013-06-15 22:14:00,
2013-06-15 18:19:00,79.0,54.6,30.03,North,0,0.0,0.0,43,0.00,CLR,CLR,0.00,WeatherDisplay:10.37,2013-06-15 22:19:00,
2013-06-15 18:24:00,80.1,55.5,30.03,North,0,0.0,0.0,43,0.00,CLR,CLR,0.00,WeatherDisplay:10.37,2013-06-15 22:24:00,
2013-06-15 18:30:00,80.8,56.2,30.03,North,0,0.0,0.0,43,0.00,CLR,CLR,0.00,WeatherDisplay:10.37,2013-06-15 22:30:00,
2013-06-15 18:35:00,80.8,56.2,30.03,North,0,0.0,0.0,43,0.00,CLR,CLR,0.00,WeatherDisplay:10.37,2013-06-15 22:35:00,
2013-06-15 18:40:00,81.0,56.4,30.06,North,0,0.0,0.0,43,0.00,CLR,CLR,0.00,WeatherDisplay:10.37,2013-06-15 22:40:00,
2013-06-15 18:45:00,81.0,56.4,30.06,North,0,0.0,0.0,43,0.00,CLR,CLR,0.00,WeatherDisplay:10.37,2013-06-15 22:45:00,
2013-06-15 18:50:00,81.1,56.5,30.06,North,0,0.0,0.0,43,0.00,CLR,CLR,0.00,WeatherDisplay:10.37,2013-06-15 22:50:00,
2013-06-15 18:55:00,80.8,55.5,30.03,North,0,0.0,0.0,42,0.00,CLR,CLR,0.00,WeatherDisplay:10.37,2013-06-15 22:55:00,
2013-06-15 19:00:00,80.8,55.5,30.03,North,0,0.0,0.0,42,0.00,CLR,CLR,0.00,WeatherDisplay:10.37,2013-06-15 23:00:00,
2013-06-15 19:05:00,80.6,56.0,30.03,North,0,0.0,0.0,43,0.00,CLR,CLR,0.00,WeatherDisplay:10.37,2013-06-15 23:05:00,
2013-06-15 19:11:00,80.4,55.9,30.03,North,0,0.0,0.0,43,0.00,CLR,CLR,0.00,WeatherDisplay:10.37,2013-06-15 23:11:00,
2013-06-15 19:16:00,79.7,55.9,30.03,North,0,0.0,0.0,44,0.00,CLR,CLR,0.00,WeatherDisplay:10.37,2013-06-15 23:16:00,
2013-06-15 19:21:00,78.6,54.9,30.03,North,0,0.0,0.0,44,0.00,CLR,CLR,0.00,WeatherDisplay:10.37,2013-06-15 23:21:00,
2013-06-15 19:26:00,78.1,54.4,30.06,North,0,0.0,0.0,44,0.00,CLR,CLR,0.00,WeatherDisplay:10.37,2013-06-15 23:26:00,
2013-06-15 19:31:00,77.5,54.5,30.06,North,0,0.0,0.0,45,0.00,CLR,CLR,0.00,WeatherDisplay:10.37,2013-06-15 23:31:00,
2013-06-15 19:36:00,77.2,54.2,30.06,North,0,0.0,0.0,45,0.00,CLR,CLR,0.00,WeatherDisplay:10.37,2013-06-15 23:36:00,
2013-06-15 19:42:00,77.0,54.0,30.06,North,0,0.0,0.0,45,0.00,CLR,CLR,0.00,WeatherDisplay:10.37,2013-06-15 23:42:00,
2013-06-15 19:47:00,76.5,54.1,30.06,North,0,0.0,0.0,46,0.00,CLR,CLR,0.00,WeatherDisplay:10.37,2013-06-15 23:47:00,
2013-06-15 19:52:00,76.3,54.6,30.06,North,0,0.0,0.0,47,0.00,CLR,CLR,0.00,WeatherDisplay:10.37,2013-06-15 23:52:00,
2013-06-15 20:00:00,75.9,54.8,30.06,North,0,0.0,0.0,48,0.00,CLR,CLR,0.00,WeatherDisplay:10.37,2013-06-16 00:00:00,
2013-06-15 20:07:00,75.4,54.9,30.06,North,0,0.0,0.0,49,0.00,CLR,CLR,0.00,WeatherDisplay:10.37,2013-06-16 00:07:00,
2013-06-15 20:14:00,75.2,55.8,30.06,North,0,0.0,0.0,51,0.00,CLR,CLR,0.00,WeatherDisplay:10.37,2013-06-16 00:14:00,
2013-06-15 20:25:00,74.8,56.0,30.06,North,0,0.0,0.0,52,0.00,CLR,CLR,0.00,WeatherDisplay:10.37,2013-06-16 00:25:00,
2013-06-15 20:30:00,74.7,56.4,30.06,North,0,0.0,0.0,53,0.00,CLR,CLR,0.00,WeatherDisplay:10.37,2013-06-16 00:30:00,
2013-06-15 20:39:00,74.5,56.7,30.06,North,0,0.0,0.0,54,0.00,CLR,CLR,0.00,WeatherDisplay:10.37,2013-06-16 00:39:00,
2013-06-15 20:44:00,74.5,56.7,30.06,North,0,0.0,0.0,54,0.00,CLR,CLR,0.00,WeatherDisplay:10.37,2013-06-16 00:44:00,
2013-06-15 20:52:00,74.3,57.1,30.06,North,0,0.0,0.0,55,0.00,CLR,CLR,0.00,WeatherDisplay:10.37,2013-06-16 00:52:00,
2013-06-15 21:01:00,74.3,57.1,30.06,North,0,0.0,0.0,55,0.00,CLR,CLR,0.00,WeatherDisplay:10.37,2013-06-16 01:01:00,
2013-06-15 21:17:00,73.9,57.7,30.06,North,0,0.0,0.0,57,0.00,CLR,CLR,0.00,WeatherDisplay:10.37,2013-06-16 01:17:00,
2013-06-15 21:22:00,73.8,57.6,30.06,North,0,0.0,0.0,57,0.00,CLR,CLR,0.00,WeatherDisplay:10.37,2013-06-16 01:22:00,
2013-06-15 21:27:00,73.8,58.1,30.06,North,0,0.0,0.0,58,0.00,CLR,CLR,0.00,WeatherDisplay:10.37,2013-06-16 01:27:00,
2013-06-15 21:32:00,73.6,57.9,30.06,North,0,0.0,0.0,58,0.00,CLR,CLR,0.00,WeatherDisplay:10.37,2013-06-16 01:32:00,
2013-06-15 21:38:00,74.1,58.9,30.06,North,0,0.0,0.0,59,0.00,CLR,CLR,0.00,WeatherDisplay:10.37,2013-06-16 01:38:00,
2013-06-15 21:43:00,74.1,58.9,30.06,North,0,0.0,0.0,59,0.00,CLR,CLR,0.00,WeatherDisplay:10.37,2013-06-16 01:43:00,
2013-06-15 21:48:00,73.8,58.5,30.06,North,0,0.0,0.0,59,0.00,CLR,CLR,0.00,WeatherDisplay:10.37,2013-06-16 01:48:00,
2013-06-15 21:53:00,73.8,58.5,30.06,North,0,0.0,0.0,59,0.00,CLR,CLR,0.00,WeatherDisplay:10.37,2013-06-16 01:53:00,
2013-06-15 21:58:00,73.8,58.5,30.06,North,0,0.0,0.0,59,0.00,CLR,CLR,0.00,WeatherDisplay:10.37,2013-06-16 01:58:00,
2013-06-15 22:04:00,73.8,58.1,30.06,North,0,0.0,0.0,58,0.00,CLR,CLR,0.00,WeatherDisplay:10.37,2013-06-16 02:04:00,
2013-06-15 22:09:00,73.8,58.1,30.06,North,0,0.0,0.0,58,0.00,CLR,CLR,0.00,WeatherDisplay:10.37,2013-06-16 02:09:00,
2013-06-15 22:14:00,73.8,57.6,30.06,North,0,0.0,0.0,57,0.00,CLR,CLR,0.00,WeatherDisplay:10.37,2013-06-16 02:14:00,
2013-06-15 22:19:00,73.6,57.4,30.06,North,0,0.0,0.0,57,0.00,CLR,CLR,0.00,WeatherDisplay:10.37,2013-06-16 02:19:00,
2013-06-15 22:24:00,73.4,57.7,30.06,North,0,0.0,0.0,58,0.00,CLR,CLR,0.00,WeatherDisplay:10.37,2013-06-16 02:24:00,
2013-06-15 22:29:00,73.6,57.9,30.06,North,0,0.0,0.0,58,0.00,CLR,CLR,0.00,WeatherDisplay:10.37,2013-06-16 02:29:00,
2013-06-15 22:34:00,73.6,57.4,30.06,North,0,0.0,0.0,57,0.00,CLR,CLR,0.00,WeatherDisplay:10.37,2013-06-16 02:34:00,
2013-06-15 22:40:00,73.6,57.4,30.09,North,0,0.0,0.0,57,0.00,CLR,CLR,0.00,WeatherDisplay:10.37,2013-06-16 02:40:00,
2013-06-15 22:45:00,73.8,57.6,30.09,North,0,0.0,0.0,57,0.00,CLR,CLR,0.00,WeatherDisplay:10.37,2013-06-16 02:45:00,
2013-06-15 22:50:00,73.6,57.4,30.09,North,0,0.0,0.0,57,0.00,CLR,CLR,0.00,WeatherDisplay:10.37,2013-06-16 02:50:00,
2013-06-15 22:55:00,73.6,57.4,30.09,North,0,0.0,0.0,57,0.00,CLR,CLR,0.00,WeatherDisplay:10.37,2013-06-16 02:55:00,
2013-06-15 23:00:00,73.4,57.2,30.09,North,0,0.0,0.0,57,0.00,CLR,CLR,0.00,WeatherDisplay:10.37,2013-06-16 03:00:00,
2013-06-15 23:05:00,73.4,57.2,30.09,North,0,0.0,0.0,57,0.00,CLR,CLR,0.00,WeatherDisplay:10.37,2013-06-16 03:05:00,
2013-06-15 23:10:00,73.2,57.6,30.09,North,0,0.0,0.0,58,0.00,CLR,CLR,0.00,WeatherDisplay:10.37,2013-06-16 03:10:00,
2013-06-15 23:15:00,73.4,57.7,30.09,North,0,0.0,0.0,58,0.00,CLR,CLR,0.00,WeatherDisplay:10.37,2013-06-16 03:15:00,
2013-06-15 23:21:00,73.4,58.2,30.09,North,0,0.0,0.0,59,0.00,CLR,CLR,0.00,WeatherDisplay:10.37,2013-06-16 03:21:00,
2013-06-15 23:26:00,73.4,58.7,30.09,North,0,0.0,0.0,60,0.00,CLR,CLR,0.00,WeatherDisplay:10.37,2013-06-16 03:26:00,
2013-06-15 23:31:00,73.6,58.8,30.09,North,0,0.0,0.0,60,0.00,CLR,CLR,0.00,WeatherDisplay:10.37,2013-06-16 03:31:00,
2013-06-15 23:36:00,73.4,58.7,30.09,North,0,0.0,0.0,60,0.00,CLR,CLR,0.00,WeatherDisplay:10.37,2013-06-16 03:36:00,
2013-06-15 23:41:00,73.4,59.1,30.09,North,0,0.0,0.0,61,0.00,CLR,CLR,0.00,WeatherDisplay:10.37,2013-06-16 03:41:00,
2013-06-15 23:47:00,73.4,59.6,30.09,North,0,0.0,0.0,62,0.00,CLR,CLR,0.00,WeatherDisplay:10.37,2013-06-16 03:47:00,
2013-06-15 23:52:00,73.2,59.9,30.09,North,0,0.0,0.0,63,0.00,CLR,CLR,0.00,WeatherDisplay:10.37,2013-06-16 03:52:00,
2013-06-15 23:57:00,73.2,59.9,30.09,North,0,0.0,0.0,63,0.00,CLR,CLR,0.00,WeatherDisplay:10.37,2013-06-16 03:57:00,